sat.trackr.live / text

‹ back to catalog

STARLINK-5036

NORAD 53917 · 2022-119AH

PAYLOAD ACTIVE UNKNOWN

§ Identity

Operator
Country
US
Launch date
2022-09-24
Launch site
AFETR
Launch vehicle
Mass (kg)
RCS (m²)

Purposes: comms

External: N2YO · Heavens-Above · Gunter

§ Orbital elements

Epoch: 2026-05-25T04:00:03.998880Z

Period
93.18 min
Inclination
53.2165°
Eccentricity
0.0001000
Mean motion
15.45406516 rev/d
Perigee alt
429.5 km
Apogee alt
430.9 km
Semi-major
6,808.3 km
B*
1.2231e-2
RAAN
323.8026°
Arg perigee
75.3014°
Mean anomaly
166.1486°
Rev number
588

§ Raw data

STARLINK-50361 53917U 22119AH  26145.16671295  .00637088  00000+0  12231-1 0  99962 53917  53.2165 323.8026 0001000  75.3014 166.1486 15.45406516  5884

JSON: /api/v1/satellites/53917 · /tle

For live sub-satellite position, see the globe view (requires WebGL).

§ Visibility from observer

Set your observer location to see the next 7 days of passes ≥ 10°. The values pass through the URL so the page stays shareable.

No JS? Fill the form by hand. The geolocation button needs JavaScript.